EKA101 PAEN-PANC

Flight info

Callsign EKA101
Flight time 0h 17m
Altitude 9000
Route ENA TED
Aircraft DH8A/M-SDFGR/S

Departure

Time 2026-05-08 02:14
Airport Kenai Municipal Airport (PAEN)

Arrival

Time 2026-05-08 02:31
Airport Ted Stevens Anchorage International Airport (PANC)
Time Latitude Longitude Altitude Speed Heading
2026-05-08 02:10 60.56543 -151.24788 104 ft 0 kts 212°
2026-05-08 02:12 60.56536 -151.24799 104 ft 8 kts 223°
2026-05-08 02:12 60.56428 -151.25030 104 ft 26 kts 227°
2026-05-08 02:12 60.56335 -151.25263 104 ft 16 kts 230°
2026-05-08 02:13 60.56251 -151.25483 104 ft 22 kts 250°
2026-05-08 02:13 60.56299 -151.25760 104 ft 18 kts 303°
2026-05-08 02:13 60.56409 -151.25720 104 ft 37 kts 30°
2026-05-08 02:13 60.56934 -151.25073 130 ft 120 kts 32°
2026-05-08 02:14 60.57708 -151.24082 466 ft 144 kts 32°
2026-05-08 02:14 60.58646 -151.22926 726 ft 169 kts 31°
2026-05-08 02:14 60.59658 -151.21589 1098 ft 178 kts 41°
2026-05-08 02:14 60.60439 -151.19583 1505 ft 184 kts 56°
2026-05-08 02:15 60.61155 -151.17405 1891 ft 190 kts 55°
2026-05-08 02:15 60.61946 -151.15186 2275 ft 193 kts 51°
2026-05-08 02:15 60.62786 -151.13067 2645 ft 196 kts 48°
2026-05-08 02:15 60.63692 -151.10967 3024 ft 197 kts 46°
2026-05-08 02:16 60.64757 -151.09237 3403 ft 196 kts 28°
2026-05-08 02:16 60.65998 -151.08057 3790 ft 197 kts 21°
2026-05-08 02:16 60.67274 -151.07015 4167 ft 198 kts 20°
2026-05-08 02:16 60.68564 -151.05983 4542 ft 200 kts 20°
2026-05-08 02:17 60.69864 -151.04932 4913 ft 201 kts 20°
2026-05-08 02:17 60.71150 -151.03870 5285 ft 203 kts 20°
2026-05-08 02:17 60.72465 -151.02760 5664 ft 205 kts 20°
2026-05-08 02:17 60.73783 -151.01622 6040 ft 206 kts 21°
2026-05-08 02:18 60.75108 -151.00450 6420 ft 208 kts 21°
2026-05-08 02:18 60.76441 -150.99244 6796 ft 210 kts 22°
2026-05-08 02:18 60.77708 -150.98070 7152 ft 212 kts 22°
2026-05-08 02:18 60.79060 -150.96788 7531 ft 215 kts 23°
2026-05-08 02:19 60.80400 -150.95486 7903 ft 217 kts 24°
2026-05-08 02:19 60.81767 -150.94123 8280 ft 219 kts 24°
2026-05-08 02:19 60.83138 -150.92721 8655 ft 221 kts 25°
2026-05-08 02:19 60.84527 -150.91263 8890 ft 229 kts 25°
2026-05-08 02:20 60.85973 -150.89704 8980 ft 240 kts 26°
2026-05-08 02:20 60.87478 -150.88037 9001 ft 250 kts 27°
2026-05-08 02:20 60.89019 -150.86277 9003 ft 257 kts 28°
2026-05-08 02:20 60.90580 -150.84433 9002 ft 260 kts 28°
2026-05-08 02:21 60.92145 -150.82521 9001 ft 262 kts 30°
2026-05-08 02:21 60.93707 -150.80544 9001 ft 264 kts 30°
2026-05-08 02:21 60.95255 -150.78510 9000 ft 264 kts 31°
2026-05-08 02:21 60.96789 -150.76418 9000 ft 265 kts 32°
2026-05-08 02:22 60.98307 -150.74265 8878 ft 264 kts 33°
2026-05-08 02:22 60.99726 -150.72165 8611 ft 246 kts 34°
2026-05-08 02:22 61.01073 -150.70079 8338 ft 233 kts 36°
2026-05-08 02:22 61.02305 -150.68089 8076 ft 224 kts 36°
2026-05-08 02:23 61.03494 -150.66086 7811 ft 217 kts 37°
2026-05-08 02:23 61.04630 -150.64095 7547 ft 212 kts 38°
2026-05-08 02:23 61.05724 -150.62098 7284 ft 208 kts 40°
2026-05-08 02:23 61.06779 -150.60088 7022 ft 205 kts 41°
2026-05-08 02:24 61.07797 -150.58062 6760 ft 202 kts 42°
2026-05-08 02:24 61.08779 -150.56018 6499 ft 200 kts 43°
2026-05-08 02:24 61.09731 -150.53943 6238 ft 198 kts 44°
2026-05-08 02:24 61.10651 -150.51834 5977 ft 196 kts 45°
2026-05-08 02:25 61.11542 -150.49682 5629 ft 199 kts 47°
2026-05-08 02:25 61.12424 -150.47435 5208 ft 204 kts 49°
2026-05-08 02:25 61.13291 -150.45088 4787 ft 207 kts 51°
2026-05-08 02:25 61.14127 -150.42653 4370 ft 208 kts 53°
2026-05-08 02:26 61.14926 -150.40132 3945 ft 209 kts 56°
2026-05-08 02:26 61.15654 -150.37537 3619 ft 206 kts 61°
2026-05-08 02:26 61.16191 -150.34954 3562 ft 187 kts 68°
2026-05-08 02:26 61.16537 -150.32482 3484 ft 170 kts 74°
2026-05-08 02:27 61.16742 -150.30125 3468 ft 165 kts 79°
2026-05-08 02:27 61.16858 -150.27787 3307 ft 161 kts 83°
2026-05-08 02:27 61.16912 -150.25497 3126 ft 158 kts 86°
2026-05-08 02:27 61.16935 -150.23248 2946 ft 152 kts 87°
2026-05-08 02:28 61.16942 -150.21210 2765 ft 128 kts 87°
2026-05-08 02:28 61.16945 -150.19426 2527 ft 125 kts 87°
2026-05-08 02:28 61.16950 -150.17627 2173 ft 124 kts 87°
2026-05-08 02:28 61.16954 -150.15870 1815 ft 122 kts 87°
2026-05-08 02:29 61.16959 -150.13987 1433 ft 131 kts 87°
2026-05-08 02:29 61.16962 -150.12165 1232 ft 126 kts 88°
2026-05-08 02:29 61.16964 -150.10362 1048 ft 124 kts 88°
2026-05-08 02:29 61.16966 -150.08611 942 ft 120 kts 88°
2026-05-08 02:30 61.16971 -150.06906 830 ft 118 kts 87°
2026-05-08 02:30 61.16989 -150.05206 709 ft 118 kts 87°
2026-05-08 02:30 61.17009 -150.03491 547 ft 120 kts 88°
2026-05-08 02:30 61.16999 -150.01763 347 ft 119 kts 90°
2026-05-08 02:31 61.16982 -150.00055 190 ft 117 kts 91°
2026-05-08 02:31 61.16980 -149.98442 159 ft 107 kts 90°
2026-05-08 02:31 61.16980 -149.97120 157 ft 64 kts 88°
2026-05-08 02:31 61.17029 -149.96818 157 ft 17 kts
2026-05-08 02:32 61.17122 -149.96926 157 ft 20 kts 272°
2026-05-08 02:32 61.17120 -149.97266 157 ft 22 kts 269°
2026-05-08 02:32 61.17124 -149.97571 157 ft 25 kts 272°
2026-05-08 02:32 61.17141 -149.97772 157 ft 8 kts 20°
2026-05-08 02:33 61.17196 -149.97682 157 ft 2 kts 42°